• In Österreich
  • Länderverzeichnis
  • Für 7 Tage
  • Wassertemperatur
  • Satellitenkarten
  • Wetterkarte
  • News
  • Widgets
  • user-avatar
    Anmelden

    Stündliche Wetter Malanje

    Heute, 22 September, Samstag

    Zeit Temperatur Niederschläge Wind Luftdruck Luftfeuchtigkeit
    00:00 +26°C° 0 mm 2 m/S 664 mmHg 51%
    01:00 +25°C° 0 mm 2 m/S 664 mmHg 57%
    02:00 +24°C° 0 mm 2 m/S 664 mmHg 62%
    03:00 +23°C° 0 mm 2 m/S 663 mmHg 67%
    04:00 +21°C° 0 mm 2 m/S 663 mmHg 73%
    05:00 +23°C° 0 mm 2 m/S 663 mmHg 72%
    06:00 +23°C° 0 mm 2 m/S 664 mmHg 71%
    07:00 +23°C° 0 mm 1 m/S 664 mmHg 71%
    08:00 +27°C° 0 mm 1 m/S 665 mmHg 57%
    09:00 +31°C° 0 mm 1 m/S 666 mmHg 44%
    10:00 +35°C° 0 mm 1 m/S 667 mmHg 30%
    11:00 +35°C° 0 mm 1 m/S 666 mmHg 28%
    12:00 +35°C° 0 mm 1 m/S 666 mmHg 26%
    13:00 +35°C° 0 mm 1 m/S 665 mmHg 24%
    14:00 +35°C° 0 mm 1 m/S 664 mmHg 24%
    15:00 +34°C° 0 mm 1 m/S 664 mmHg 25%
    16:00 +34°C° 0 mm 1 m/S 664 mmHg 26%
    17:00 +32°C° 0 mm 1 m/S 664 mmHg 28%
    18:00 +31°C° 0 mm 1 m/S 664 mmHg 31%
    19:00 +30°C° 0 mm 1 m/S 664 mmHg 34%
    20:00 +29°C° 0 mm 2 m/S 664 mmHg 38%
    21:00 +28°C° 0 mm 3 m/S 665 mmHg 42%
    22:00 +27°C° 0 mm 3 m/S 665 mmHg 47%
    23:00 +26°C° 0 mm 3 m/S 665 mmHg 53%

    Morgen, 23 September, Sonntag

    Zeit Temperatur Niederschläge Wind Luftdruck Luftfeuchtigkeit
    00:00 +24°C° 0 mm 3 m/S 665 mmHg 59%
    01:00 +22°C° 0 mm 3 m/S 664 mmHg 65%
    02:00 +21°C° 0 mm 3 m/S 664 mmHg 68%
    03:00 +21°C° 0 mm 3 m/S 664 mmHg 71%
    04:00 +20°C° 0 mm 3 m/S 663 mmHg 73%
    05:00 +20°C° 0 mm 3 m/S 664 mmHg 71%
    06:00 +21°C° 0 mm 3 m/S 664 mmHg 70%
    07:00 +21°C° 0 mm 3 m/S 664 mmHg 68%
    08:00 +25°C° 0 mm 3 m/S 665 mmHg 56%
    09:00 +29°C° 0 mm 3 m/S 666 mmHg 45%
    10:00 +33°C° 0 mm 3 m/S 667 mmHg 33%
    11:00 +35°C° 0 mm 2 m/S 666 mmHg 28%
    12:00 +38°C° 0 mm 2 m/S 666 mmHg 24%
    13:00 +40°C° 0 mm 1 m/S 666 mmHg 19%
    14:00 +38°C° 0 mm 2 m/S 665 mmHg 21%
    15:00 +36°C° 0 mm 2 m/S 664 mmHg 24%
    16:00 +34°C° 0 mm 2 m/S 664 mmHg 26%
    17:00 +33°C° 0.2 mm 3 m/S 664 mmHg 32%
    18:00 +30°C° 0.2 mm 3 m/S 664 mmHg 38%
    19:00 +28°C° 0.2 mm 4 m/S 664 mmHg 45%
    20:00 +27°C° 0 mm 4 m/S 664 mmHg 48%
    21:00 +26°C° 0 mm 4 m/S 665 mmHg 50%
    22:00 +26°C° 0 mm 4 m/S 665 mmHg 53%
    23:00 +25°C° 0 mm 4 m/S 665 mmHg 58%

    übermorgen, 24 September, Montag

    Zeit Temperatur Niederschläge Wind Luftdruck Luftfeuchtigkeit
    00:00 +23°C° 0 mm 4 m/S 664 mmHg 63%
    01:00 +22°C° 0 mm 4 m/S 664 mmHg 68%
    02:00 +21°C° 0 mm 4 m/S 664 mmHg 71%
    03:00 +20°C° 0 mm 3 m/S 663 mmHg 74%
    04:00 +19°C° 0 mm 3 m/S 663 mmHg 76%
    05:00 +19°C° 0 mm 3 m/S 663 mmHg 75%
    06:00 +20°C° 0 mm 3 m/S 664 mmHg 74%
    07:00 +20°C° 0 mm 3 m/S 665 mmHg 73%
    08:00 +24°C° 0 mm 3 m/S 665 mmHg 60%
    09:00 +27°C° 0 mm 3 m/S 666 mmHg 47%
    10:00 +30°C° 0 mm 3 m/S 667 mmHg 35%
    11:00 +32°C° 0 mm 2 m/S 666 mmHg 31%
    12:00 +35°C° 0 mm 2 m/S 666 mmHg 26%
    13:00 +37°C° 0 mm 2 m/S 665 mmHg 22%
    14:00 +36°C° 0 mm 3 m/S 664 mmHg 23%
    15:00 +36°C° 0 mm 3 m/S 664 mmHg 24%
    16:00 +35°C° 0 mm 3 m/S 663 mmHg 25%
    17:00 +33°C° 0 mm 3 m/S 663 mmHg 29%
    18:00 +30°C° 0 mm 3 m/S 664 mmHg 33%
    19:00 +29°C° 0 mm 4 m/S 664 mmHg 37%
    20:00 +28°C° 0 mm 4 m/S 664 mmHg 41%
    21:00 +26°C° 0 mm 4 m/S 664 mmHg 45%
    22:00 +25°C° 0 mm 4 m/S 665 mmHg 49%
    23:00 +23°C° 0 mm 4 m/S 665 mmHg 56%

    25 September, Dienstag

    Zeit Temperatur Niederschläge Wind Luftdruck Luftfeuchtigkeit
    00:00 +22°C° 0 mm 3 m/S 664 mmHg 62%
    01:00 +21°C° 0 mm 3 m/S 664 mmHg 68%
    02:00 +21°C° 0 mm 3 m/S 664 mmHg 71%
    03:00 +20°C° 0 mm 3 m/S 664 mmHg 74%
    04:00 +19°C° 0 mm 3 m/S 664 mmHg 78%
    05:00 +19°C° 0 mm 3 m/S 664 mmHg 77%
    06:00 +19°C° 0 mm 3 m/S 665 mmHg 76%
    07:00 +20°C° 0 mm 3 m/S 665 mmHg 75%
    08:00 +24°C° 0 mm 3 m/S 666 mmHg 63%
    09:00 +26°C° 0 mm 3 m/S 667 mmHg 52%
    10:00 +29°C° 0 mm 2 m/S 667 mmHg 41%
    11:00 +31°C° 0 mm 2 m/S 667 mmHg 37%
    12:00 +34°C° 0 mm 3 m/S 666 mmHg 32%
    13:00 +36°C° 0 mm 3 m/S 665 mmHg 28%
    14:00 +35°C° 0 mm 3 m/S 665 mmHg 29%
    15:00 +34°C° 0 mm 3 m/S 664 mmHg 30%
    16:00 +34°C° 0 mm 3 m/S 664 mmHg 31%
    17:00 +31°C° 0.2 mm 3 m/S 664 mmHg 37%
    18:00 +29°C° 0.2 mm 3 m/S 664 mmHg 43%
    19:00 +27°C° 0.2 mm 3 m/S 664 mmHg 48%
    20:00 +26°C° 0.1 mm 3 m/S 665 mmHg 51%
    21:00 +25°C° 0.1 mm 3 m/S 665 mmHg 53%
    22:00 +24°C° 0.1 mm 3 m/S 665 mmHg 55%
    23:00 +24°C° 0 mm 3 m/S 665 mmHg 58%

    26 September, Mittwoch

    Zeit Temperatur Niederschläge Wind Luftdruck Luftfeuchtigkeit
    00:00 +23°C° 0 mm 2 m/S 664 mmHg 61%
    01:00 +21°C° 0 mm 2 m/S 664 mmHg 65%
    02:00 +21°C° 0.3 mm 2 m/S 664 mmHg 70%
    03:00 +20°C° 0.3 mm 2 m/S 664 mmHg 75%
    04:00 +19°C° 0.3 mm 2 m/S 664 mmHg 80%
    05:00 +20°C° 0.2 mm 2 m/S 664 mmHg 80%
    06:00 +20°C° 0.2 mm 2 m/S 665 mmHg 80%
    07:00 +20°C° 0.2 mm 2 m/S 666 mmHg 79%
    08:00 +24°C° 0.2 mm 2 m/S 666 mmHg 69%
    09:00 +26°C° 0.2 mm 2 m/S 666 mmHg 59%
    10:00 +28°C° 0.2 mm 2 m/S 667 mmHg 49%
    11:00 +31°C° 0 mm 2 m/S 666 mmHg 42%
    12:00 +34°C° 0 mm 2 m/S 666 mmHg 35%
    13:00 +36°C° 0 mm 2 m/S 666 mmHg 28%
    14:00 +36°C° 0 mm 2 m/S 665 mmHg 28%
    15:00 +35°C° 0 mm 2 m/S 664 mmHg 28%
    16:00 +35°C° 0 mm 2 m/S 664 mmHg 29%
    17:00 +32°C° 0 mm 2 m/S 664 mmHg 32%
    18:00 +31°C° 0 mm 2 m/S 664 mmHg 35%
    19:00 +29°C° 0 mm 2 m/S 665 mmHg 38%
    20:00 +28°C° 0.1 mm 2 m/S 665 mmHg 41%
    21:00 +27°C° 0.1 mm 2 m/S 665 mmHg 45%
    22:00 +26°C° 0.1 mm 2 m/S 665 mmHg 48%
    23:00 +25°C° 0 mm 2 m/S 664 mmHg 52%

    27 September, Donnerstag

    Zeit Temperatur Niederschläge Wind Luftdruck Luftfeuchtigkeit
    00:00 +24°C° 0 mm 2 m/S 664 mmHg 56%
    01:00 +23°C° 0 mm 2 m/S 664 mmHg 59%
    02:00 +23°C° 0 mm 2 m/S 664 mmHg 62%
    03:00 +21°C° 0 mm 2 m/S 664 mmHg 65%
    04:00 +21°C° 0 mm 2 m/S 665 mmHg 68%
    05:00 +21°C° 0.1 mm 2 m/S 665 mmHg 68%
    06:00 +21°C° 0.1 mm 2 m/S 665 mmHg 68%
    07:00 +21°C° 0.1 mm 2 m/S 665 mmHg 67%
    08:00 +25°C° 0 mm 2 m/S 666 mmHg 57%
    09:00 +29°C° 0 mm 2 m/S 667 mmHg 47%
    10:00 +32°C° 0 mm 2 m/S 667 mmHg 37%
    11:00 +35°C° 0 mm 2 m/S 667 mmHg 32%
    12:00 +37°C° 0 mm 1 m/S 666 mmHg 27%
    13:00 +40°C° 0 mm 1 m/S 666 mmHg 22%
    14:00 +37°C° 0 mm 1 m/S 665 mmHg 24%
    15:00 +37°C° 0 mm 2 m/S 664 mmHg 26%
    16:00 +35°C° 0 mm 2 m/S 664 mmHg 28%
    17:00 +34°C° 0.1 mm 2 m/S 664 mmHg 32%
    18:00 +31°C° 0.1 mm 2 m/S 664 mmHg 35%
    19:00 +30°C° 0.1 mm 2 m/S 664 mmHg 39%
    20:00 +28°C° 0 mm 2 m/S 664 mmHg 44%
    21:00 +27°C° 0 mm 2 m/S 664 mmHg 48%
    22:00 +26°C° 0 mm 2 m/S 665 mmHg 53%
    23:00 +25°C° 0.1 mm 2 m/S 664 mmHg 57%
    Mehr zeigen